Time,TemperatureF,DewpointF,PressureIn,WindDirection,WindDirectionDegrees,WindSpeedMPH,WindSpeedGustMPH,Humidity,HourlyPrecipIn,Conditions,Clouds,dailyrainin,SoftwareType,DateUTC
2013-05-30 00:00:00,68.5,15.7,29.58,NNW,342,1.0,1.0,13,0.00,,,0.00,Wunderground v.1.15,2013-05-30 06:00:00,
2013-05-30 00:04:00,68.4,17.3,29.59,NNW,342,1.0,1.0,14,0.00,,,0.00,Wunderground v.1.15,2013-05-30 06:04:00,
2013-05-30 00:09:00,68.2,17.1,29.59,NNW,342,1.0,1.0,14,0.00,,,0.00,Wunderground v.1.15,2013-05-30 06:09:00,
2013-05-30 00:14:00,68.0,17.0,29.59,NNW,342,1.0,1.0,14,0.00,,,0.00,Wunderground v.1.15,2013-05-30 06:14:00,
2013-05-30 00:19:00,67.9,16.9,29.59,NNW,342,0.0,0.0,14,0.00,,,0.00,Wunderground v.1.15,2013-05-30 06:19:00,
2013-05-30 00:25:00,67.7,16.7,29.59,NNW,342,0.0,0.0,14,0.00,,,0.00,Wunderground v.1.15,2013-05-30 06:25:00,
2013-05-30 00:30:00,67.5,16.6,29.60,NNW,342,0.0,7.0,14,0.00,,,0.00,Wunderground v.1.15,2013-05-30 06:30:00,
2013-05-30 00:35:00,67.2,16.3,29.60,NNW,342,0.0,7.0,14,0.00,,,0.00,Wunderground v.1.15,2013-05-30 06:35:00,
2013-05-30 00:40:00,66.9,17.7,29.60,NNW,342,0.0,0.0,15,0.00,,,0.00,Wunderground v.1.15,2013-05-30 06:40:00,
2013-05-30 00:45:00,66.6,17.4,29.61,NNW,342,0.0,0.0,15,0.00,,,0.00,Wunderground v.1.15,2013-05-30 06:45:00,
2013-05-30 00:50:00,66.4,17.3,29.60,NNW,342,0.0,0.0,15,0.00,,,0.00,Wunderground v.1.15,2013-05-30 06:50:00,
2013-05-30 01:00:00,66.0,17.0,29.61,NNW,342,0.0,0.0,15,0.00,,,0.00,Wunderground v.1.15,2013-05-30 07:00:00,
2013-05-30 01:05:00,66.0,17.0,29.60,NNW,342,0.0,0.0,15,0.00,,,0.00,Wunderground v.1.15,2013-05-30 07:05:00,
2013-05-30 01:09:00,65.9,16.9,29.61,NNW,342,0.0,0.0,15,0.00,,,0.00,Wunderground v.1.15,2013-05-30 07:09:00,
2013-05-30 01:19:00,65.7,18.2,29.61,NNW,342,0.0,0.0,16,0.00,,,0.00,Wunderground v.1.15,2013-05-30 07:19:00,
2013-05-30 01:25:00,65.6,18.1,29.61,NNW,342,0.0,0.0,16,0.00,,,0.00,Wunderground v.1.15,2013-05-30 07:25:00,
2013-05-30 01:30:00,65.5,18.1,29.61,NNW,342,0.0,0.0,16,0.00,,,0.00,Wunderground v.1.15,2013-05-30 07:30:00,
2013-05-30 01:35:00,65.4,18.0,29.61,NNW,342,0.0,0.0,16,0.00,,,0.00,Wunderground v.1.15,2013-05-30 07:35:00,
2013-05-30 01:45:00,65.0,19.1,29.61,NNW,342,0.0,0.0,17,0.00,,,0.00,Wunderground v.1.15,2013-05-30 07:45:00,
2013-05-30 01:54:00,64.6,18.7,29.61,NNW,342,0.0,0.0,17,0.00,,,0.00,Wunderground v.1.15,2013-05-30 07:54:00,
2013-05-30 01:59:00,64.4,18.6,29.61,NNW,342,0.0,0.0,17,0.00,,,0.00,Wunderground v.1.15,2013-05-30 07:59:00,
2013-05-30 02:04:00,64.3,19.8,29.61,NNW,342,0.0,0.0,18,0.00,,,0.00,Wunderground v.1.15,2013-05-30 08:04:00,
2013-05-30 02:09:00,64.1,19.7,29.61,NNW,342,0.0,0.0,18,0.00,,,0.00,Wunderground v.1.15,2013-05-30 08:09:00,
2013-05-30 02:14:00,63.8,19.4,29.62,NNW,342,0.0,0.0,18,0.00,,,0.00,Wunderground v.1.15,2013-05-30 08:14:00,
2013-05-30 02:20:00,63.6,19.3,29.61,NNW,342,0.0,0.0,18,0.00,,,0.00,Wunderground v.1.15,2013-05-30 08:20:00,
2013-05-30 02:30:00,63.1,18.9,29.61,NNW,342,0.0,0.0,18,0.00,,,0.00,Wunderground v.1.15,2013-05-30 08:30:00,
2013-05-30 02:35:00,63.0,18.8,29.62,NNW,342,0.0,0.0,18,0.00,,,0.00,Wunderground v.1.15,2013-05-30 08:35:00,
2013-05-30 02:40:00,62.8,18.6,29.61,NNW,342,0.0,0.0,18,0.00,,,0.00,Wunderground v.1.15,2013-05-30 08:40:00,
2013-05-30 02:45:00,62.7,19.8,29.61,NNW,342,0.0,0.0,19,0.00,,,0.00,Wunderground v.1.15,2013-05-30 08:45:00,
2013-05-30 02:50:00,62.5,19.6,29.62,NNW,342,0.0,0.0,19,0.00,,,0.00,Wunderground v.1.15,2013-05-30 08:50:00,
2013-05-30 02:59:00,62.0,20.4,29.62,NNW,342,0.0,0.0,20,0.00,,,0.00,Wunderground v.1.15,2013-05-30 08:59:00,
2013-05-30 03:04:00,61.7,20.2,29.62,NNW,342,0.0,0.0,20,0.00,,,0.00,Wunderground v.1.15,2013-05-30 09:04:00,
2013-05-30 03:10:00,61.4,19.9,29.62,NNW,342,0.0,0.0,20,0.00,,,0.00,Wunderground v.1.15,2013-05-30 09:10:00,
2013-05-30 03:15:00,61.2,19.8,29.62,NNW,342,0.0,0.0,20,0.00,,,0.00,Wunderground v.1.15,2013-05-30 09:15:00,
2013-05-30 03:20:00,60.9,20.7,29.62,NNW,342,0.0,0.0,21,0.00,,,0.00,Wunderground v.1.15,2013-05-30 09:20:00,
2013-05-30 03:25:00,60.7,20.5,29.62,NNW,342,0.0,0.0,21,0.00,,,0.00,Wunderground v.1.15,2013-05-30 09:25:00,
2013-05-30 03:30:00,60.4,20.2,29.62,NNW,342,0.0,0.0,21,0.00,,,0.00,Wunderground v.1.15,2013-05-30 09:30:00,
2013-05-30 03:35:00,60.2,21.2,29.62,NNW,342,0.0,0.0,22,0.00,,,0.00,Wunderground v.1.15,2013-05-30 09:35:00,
2013-05-30 03:39:00,60.0,21.0,29.63,NNW,342,0.0,0.0,22,0.00,,,0.00,Wunderground v.1.15,2013-05-30 09:39:00,
2013-05-30 03:44:00,59.8,20.8,29.63,NNW,342,0.0,0.0,22,0.00,,,0.00,Wunderground v.1.15,2013-05-30 09:44:00,
2013-05-30 03:54:00,59.3,20.4,29.64,NNW,342,0.0,0.0,22,0.00,,,0.00,Wunderground v.1.15,2013-05-30 09:54:00,
2013-05-30 04:00:00,59.0,21.2,29.63,NNW,342,0.0,0.0,23,0.00,,,0.00,Wunderground v.1.15,2013-05-30 10:00:00,
2013-05-30 04:10:00,58.6,20.9,29.64,NNW,342,0.0,0.0,23,0.00,,,0.00,Wunderground v.1.15,2013-05-30 10:10:00,
2013-05-30 04:15:00,58.4,20.7,29.65,NNW,342,0.0,0.0,23,0.00,,,0.00,Wunderground v.1.15,2013-05-30 10:15:00,
2013-05-30 04:19:00,58.2,21.5,29.65,NNW,342,0.0,0.0,24,0.00,,,0.00,Wunderground v.1.15,2013-05-30 10:19:00,
2013-05-30 04:24:00,58.0,20.4,29.65,NNW,342,0.0,0.0,23,0.00,,,0.00,Wunderground v.1.15,2013-05-30 10:24:00,
2013-05-30 04:29:00,57.9,21.3,29.65,NNW,342,0.0,0.0,24,0.00,,,0.00,Wunderground v.1.15,2013-05-30 10:29:00,
2013-05-30 04:34:00,57.8,20.2,29.65,NNW,342,0.0,0.0,23,0.00,,,0.00,Wunderground v.1.15,2013-05-30 10:34:00,
2013-05-30 04:40:00,57.7,20.1,29.66,NNW,342,0.0,0.0,23,0.00,,,0.00,Wunderground v.1.15,2013-05-30 10:40:00,
2013-05-30 04:45:00,57.5,20.9,29.66,NNW,342,0.0,0.0,24,0.00,,,0.00,Wunderground v.1.15,2013-05-30 10:45:00,
2013-05-30 04:55:00,57.2,20.7,29.66,NNW,342,0.0,0.0,24,0.00,,,0.00,Wunderground v.1.15,2013-05-30 10:55:00,
2013-05-30 04:59:00,57.1,20.6,29.66,NNW,342,0.0,0.0,24,0.00,,,0.00,Wunderground v.1.15,2013-05-30 10:59:00,
2013-05-30 05:04:00,56.9,20.4,29.67,NNW,342,0.0,0.0,24,0.00,,,0.00,Wunderground v.1.15,2013-05-30 11:04:00,
2013-05-30 05:09:00,56.7,20.3,29.67,NNW,342,0.0,0.0,24,0.00,,,0.00,Wunderground v.1.15,2013-05-30 11:09:00,
2013-05-30 05:14:00,56.5,21.1,29.67,NNW,342,0.0,0.0,25,0.00,,,0.00,Wunderground v.1.15,2013-05-30 11:14:00,
2013-05-30 05:19:00,56.2,20.8,29.68,NNW,342,0.0,0.0,25,0.00,,,0.00,Wunderground v.1.15,2013-05-30 11:19:00,
2013-05-30 05:24:00,56.0,22.4,29.68,NNW,342,0.0,0.0,27,0.00,,,0.00,Wunderground v.1.15,2013-05-30 11:24:00,
2013-05-30 05:30:00,55.8,22.3,29.68,NNW,342,0.0,0.0,27,0.00,,,0.00,Wunderground v.1.15,2013-05-30 11:30:00,
2013-05-30 05:35:00,55.7,22.2,29.68,NNW,342,0.0,0.0,27,0.00,,,0.00,Wunderground v.1.15,2013-05-30 11:35:00,
2013-05-30 05:45:00,55.3,21.8,29.68,NNW,342,0.0,0.0,27,0.00,,,0.00,Wunderground v.1.15,2013-05-30 11:45:00,
2013-05-30 05:49:00,55.1,21.7,29.68,NNW,342,0.0,0.0,27,0.00,,,0.00,Wunderground v.1.15,2013-05-30 11:49:00,
2013-05-30 05:54:00,55.0,21.6,29.69,NNW,342,0.0,0.0,27,0.00,,,0.00,Wunderground v.1.15,2013-05-30 11:54:00,
2013-05-30 05:59:00,54.9,21.5,29.69,NNW,342,0.0,0.0,27,0.00,,,0.00,Wunderground v.1.15,2013-05-30 11:59:00,
2013-05-30 06:10:00,54.6,22.1,29.70,NNW,342,0.0,0.0,28,0.00,,,0.00,Wunderground v.1.15,2013-05-30 12:10:00,
2013-05-30 06:20:00,54.4,21.9,29.70,NNW,342,0.0,0.0,28,0.00,,,0.00,Wunderground v.1.15,2013-05-30 12:20:00,
2013-05-30 06:25:00,54.4,21.9,29.71,NNW,342,0.0,0.0,28,0.00,,,0.00,Wunderground v.1.15,2013-05-30 12:25:00,
2013-05-30 06:30:00,54.4,21.9,29.71,NNW,342,0.0,0.0,28,0.00,,,0.00,Wunderground v.1.15,2013-05-30 12:30:00,
2013-05-30 06:34:00,54.5,22.0,29.71,NNW,342,0.0,0.0,28,0.00,,,0.00,Wunderground v.1.15,2013-05-30 12:34:00,
2013-05-30 06:39:00,54.6,22.9,29.71,NNW,342,0.0,0.0,29,0.00,,,0.00,Wunderground v.1.15,2013-05-30 12:39:00,
2013-05-30 06:49:00,55.1,23.4,29.72,NNW,342,0.0,0.0,29,0.00,,,0.00,Wunderground v.1.15,2013-05-30 12:49:00,
2013-05-30 06:55:00,55.4,23.6,29.72,NNW,342,0.0,0.0,29,0.00,,,0.00,Wunderground v.1.15,2013-05-30 12:55:00,
2013-05-30 07:00:00,55.6,24.6,29.72,NNW,342,0.0,0.0,30,0.00,,,0.00,Wunderground v.1.15,2013-05-30 13:00:00,
2013-05-30 07:09:00,56.3,25.2,29.72,NNW,342,0.0,0.0,30,0.00,,,0.00,Wunderground v.1.15,2013-05-30 13:09:00,
2013-05-30 07:14:00,56.9,24.9,29.73,NNW,342,0.0,0.0,29,0.00,,,0.00,Wunderground v.1.15,2013-05-30 13:14:00,
2013-05-30 07:19:00,57.4,24.5,29.73,NNW,342,0.0,0.0,28,0.00,,,0.00,Wunderground v.1.15,2013-05-30 13:19:00,
2013-05-30 07:24:00,57.9,25.0,29.73,NNW,342,0.0,0.0,28,0.00,,,0.00,Wunderground v.1.15,2013-05-30 13:24:00,
2013-05-30 07:29:00,58.5,23.7,29.73,NNW,342,0.0,0.0,26,0.00,,,0.00,Wunderground v.1.15,2013-05-30 13:29:00,
2013-05-30 07:35:00,59.0,23.2,29.73,NNW,342,0.0,0.0,25,0.00,,,0.00,Wunderground v.1.15,2013-05-30 13:35:00,
2013-05-30 07:40:00,59.7,24.7,29.73,NNW,342,0.0,0.0,26,0.00,,,0.00,Wunderground v.1.15,2013-05-30 13:40:00,
2013-05-30 07:45:00,60.3,24.3,29.73,NNW,342,0.0,0.0,25,0.00,,,0.00,Wunderground v.1.15,2013-05-30 13:45:00,
2013-05-30 07:50:00,61.1,23.0,29.73,NNW,342,0.0,0.0,23,0.00,,,0.00,Wunderground v.1.15,2013-05-30 13:50:00,
2013-05-30 07:55:00,61.8,22.5,29.73,NNW,342,0.0,0.0,22,0.00,,,0.00,Wunderground v.1.15,2013-05-30 13:55:00,
2013-05-30 07:59:00,62.6,23.2,29.73,NNW,342,0.0,0.0,22,0.00,,,0.00,Wunderground v.1.15,2013-05-30 13:59:00,
2013-05-30 08:04:00,63.5,23.9,29.73,NNW,342,0.0,0.0,22,0.00,,,0.00,Wunderground v.1.15,2013-05-30 14:04:00,
2013-05-30 08:09:00,64.3,24.6,29.73,NNW,342,0.0,0.0,22,0.00,,,0.00,Wunderground v.1.15,2013-05-30 14:09:00,
2013-05-30 08:20:00,66.3,24.0,29.73,NNW,342,0.0,0.0,20,0.00,,,0.00,Wunderground v.1.15,2013-05-30 14:20:00,
2013-05-30 08:25:00,67.0,27.9,29.73,NNW,342,0.0,0.0,23,0.00,,,0.00,Wunderground v.1.15,2013-05-30 14:25:00,
2013-05-30 08:30:00,67.6,28.5,29.73,NNW,342,0.0,0.0,23,0.00,,,0.00,Wunderground v.1.15,2013-05-30 14:30:00,
2013-05-30 08:40:00,68.3,28.0,29.73,NNW,342,0.0,0.0,22,0.00,,,0.00,Wunderground v.1.15,2013-05-30 14:40:00,
2013-05-30 08:45:00,68.5,23.3,29.73,NNW,342,0.0,0.0,18,0.00,,,0.00,Wunderground v.1.15,2013-05-30 14:45:00,
2013-05-30 08:49:00,68.3,24.4,29.73,NNW,342,0.0,0.0,19,0.00,,,0.00,Wunderground v.1.15,2013-05-30 14:49:00,
2013-05-30 08:59:00,69.3,23.9,29.73,NNW,342,0.0,0.0,18,0.00,,,0.00,Wunderground v.1.15,2013-05-30 14:59:00,
2013-05-30 09:10:00,70.1,23.2,29.73,North,355,0.0,0.0,17,0.00,,,0.00,Wunderground v.1.15,2013-05-30 15:10:00,
2013-05-30 09:15:00,70.2,21.9,29.73,North,355,0.0,0.0,16,0.00,,,0.00,Wunderground v.1.15,2013-05-30 15:15:00,
2013-05-30 09:20:00,70.6,22.2,29.73,North,355,0.0,0.0,16,0.00,,,0.00,Wunderground v.1.15,2013-05-30 15:20:00,
2013-05-30 09:25:00,71.1,22.6,29.73,North,355,0.0,0.0,16,0.00,,,0.00,Wunderground v.1.15,2013-05-30 15:25:00,
2013-05-30 09:30:00,71.4,22.8,29.73,North,355,0.0,0.0,16,0.00,,,0.00,Wunderground v.1.15,2013-05-30 15:30:00,
2013-05-30 09:35:00,71.6,24.4,29.73,North,355,0.0,0.0,17,0.00,,,0.00,Wunderground v.1.15,2013-05-30 15:35:00,
2013-05-30 09:44:00,71.6,24.4,29.73,North,355,0.0,0.0,17,0.00,,,0.00,Wunderground v.1.15,2013-05-30 15:44:00,
2013-05-30 09:49:00,71.7,24.5,29.73,North,355,0.0,0.0,17,0.00,,,0.00,Wunderground v.1.15,2013-05-30 15:49:00,
2013-05-30 09:54:00,71.8,24.6,29.73,North,355,0.0,0.0,17,0.00,,,0.00,Wunderground v.1.15,2013-05-30 15:54:00,
2013-05-30 10:05:00,71.9,26.1,29.73,North,355,0.0,0.0,18,0.00,,,0.00,Wunderground v.1.15,2013-05-30 16:05:00,
2013-05-30 10:10:00,72.2,26.3,29.73,North,355,0.0,0.0,18,0.00,,,0.00,Wunderground v.1.15,2013-05-30 16:10:00,
2013-05-30 10:15:00,72.4,27.8,29.73,North,355,0.0,0.0,19,0.00,,,0.00,Wunderground v.1.15,2013-05-30 16:15:00,
2013-05-30 10:20:00,72.7,28.0,29.72,North,355,0.0,0.0,19,0.00,,,0.00,Wunderground v.1.15,2013-05-30 16:20:00,
2013-05-30 10:24:00,73.0,28.3,29.72,North,355,0.0,0.0,19,0.00,,,0.00,Wunderground v.1.15,2013-05-30 16:24:00,
2013-05-30 10:29:00,73.3,28.5,29.72,North,355,0.0,0.0,19,0.00,,,0.00,Wunderground v.1.15,2013-05-30 16:29:00,
2013-05-30 10:34:00,73.7,28.8,29.72,North,355,0.0,0.0,19,0.00,,,0.00,Wunderground v.1.15,2013-05-30 16:34:00,
2013-05-30 10:40:00,74.0,27.8,29.72,North,355,0.0,0.0,18,0.00,,,0.00,Wunderground v.1.15,2013-05-30 16:40:00,
2013-05-30 10:45:00,74.4,28.1,29.71,North,355,0.0,0.0,18,0.00,,,0.00,Wunderground v.1.15,2013-05-30 16:45:00,
2013-05-30 10:55:00,75.1,30.0,29.71,North,355,0.0,1.0,19,0.00,,,0.00,Wunderground v.1.15,2013-05-30 16:55:00,
2013-05-30 11:00:00,75.6,30.4,29.70,North,355,0.0,0.0,19,0.00,,,0.00,Wunderground v.1.15,2013-05-30 17:00:00,
2013-05-30 11:05:00,76.1,29.5,29.70,North,360,0.0,0.0,18,0.00,,,0.00,Wunderground v.1.15,2013-05-30 17:05:00,
2013-05-30 11:14:00,76.7,28.6,29.69,North,360,1.0,1.0,17,0.00,,,0.00,Wunderground v.1.15,2013-05-30 17:14:00,
2013-05-30 11:25:00,77.3,26.0,29.69,North,5,2.0,4.0,15,0.00,,,0.00,Wunderground v.1.15,2013-05-30 17:25:00,
2013-05-30 11:30:00,77.6,27.8,29.70,NNW,337,3.0,3.0,16,0.00,,,0.00,Wunderground v.1.15,2013-05-30 17:30:00,
2013-05-30 11:35:00,77.9,26.5,29.69,NNW,340,3.0,3.0,15,0.00,,,0.00,Wunderground v.1.15,2013-05-30 17:35:00,
2013-05-30 11:45:00,78.7,27.1,29.69,NNW,340,1.0,6.0,15,0.00,,,0.00,Wunderground v.1.15,2013-05-30 17:45:00,
2013-05-30 11:54:00,79.5,27.8,29.69,NNW,335,3.0,5.0,15,0.00,,,0.00,Wunderground v.1.15,2013-05-30 17:54:00,
2013-05-30 11:59:00,79.7,26.3,29.69,NNW,343,3.0,3.0,14,0.00,,,0.00,Wunderground v.1.15,2013-05-30 17:59:00,
2013-05-30 12:04:00,79.7,24.5,29.69,North,350,3.0,7.0,13,0.00,,,0.00,Wunderground v.1.15,2013-05-30 18:04:00,
2013-05-30 12:09:00,79.5,26.1,29.69,NNW,346,4.0,4.0,14,0.00,,,0.00,Wunderground v.1.15,2013-05-30 18:09:00,
2013-05-30 12:15:00,79.5,26.1,29.69,NNW,346,4.0,4.0,14,0.00,,,0.00,Wunderground v.1.15,2013-05-30 18:15:00,
2013-05-30 12:20:00,79.8,26.3,29.68,NNW,338,3.0,4.0,14,0.00,,,0.00,Wunderground v.1.15,2013-05-30 18:20:00,
2013-05-30 12:25:00,80.3,24.9,29.68,NNW,348,3.0,4.0,13,0.00,,,0.00,Wunderground v.1.15,2013-05-30 18:25:00,
2013-05-30 12:30:00,80.5,25.1,29.68,NNW,342,3.0,10.0,13,0.00,,,0.00,Wunderground v.1.15,2013-05-30 18:30:00,
2013-05-30 12:35:00,80.9,25.4,29.68,NNW,342,3.0,10.0,13,0.00,,,0.00,Wunderground v.1.15,2013-05-30 18:35:00,
2013-05-30 12:40:00,81.4,23.9,29.67,NNW,344,2.0,3.0,12,0.00,,,0.00,Wunderground v.1.15,2013-05-30 18:40:00,
2013-05-30 12:44:00,81.7,24.1,29.67,NNW,340,2.0,3.0,12,0.00,,,0.00,Wunderground v.1.15,2013-05-30 18:44:00,
2013-05-30 12:49:00,82.0,22.3,29.67,NNW,337,2.0,3.0,11,0.00,,,0.00,Wunderground v.1.15,2013-05-30 18:49:00,
2013-05-30 12:54:00,82.3,24.6,29.67,NNW,336,2.0,3.0,12,0.00,,,0.00,Wunderground v.1.15,2013-05-30 18:54:00,
2013-05-30 13:00:00,82.5,24.7,29.66,NNW,346,2.0,2.0,12,0.00,,,0.00,Wunderground v.1.15,2013-05-30 19:00:00,
2013-05-30 13:05:00,82.8,25.0,29.66,NNW,346,2.0,2.0,12,0.00,,,0.00,Wunderground v.1.15,2013-05-30 19:05:00,
2013-05-30 13:10:00,83.0,23.0,29.66,NNW,335,3.0,3.0,11,0.00,,,0.00,Wunderground v.1.15,2013-05-30 19:10:00,
2013-05-30 13:15:00,83.1,23.1,29.66,NNW,338,3.0,3.0,11,0.00,,,0.00,Wunderground v.1.15,2013-05-30 19:15:00,
2013-05-30 13:19:00,83.1,23.1,29.65,NNW,330,1.0,2.0,11,0.00,,,0.00,Wunderground v.1.15,2013-05-30 19:19:00,
2013-05-30 13:24:00,83.5,23.4,29.65,NNW,327,1.0,2.0,11,0.00,,,0.00,Wunderground v.1.15,2013-05-30 19:24:00,
2013-05-30 13:29:00,83.6,23.5,29.65,NW,315,2.0,10.0,11,0.00,,,0.00,Wunderground v.1.15,2013-05-30 19:29:00,
2013-05-30 13:34:00,84.0,21.5,29.65,NW,308,2.0,10.0,10,0.00,,,0.00,Wunderground v.1.15,2013-05-30 19:34:00,
2013-05-30 13:39:00,83.9,23.7,29.64,NW,308,1.0,2.0,11,0.00,,,0.00,Wunderground v.1.15,2013-05-30 19:39:00,
2013-05-30 13:44:00,83.6,23.5,29.64,NW,309,1.0,2.0,11,0.00,,,0.00,Wunderground v.1.15,2013-05-30 19:44:00,
2013-05-30 13:50:00,84.1,23.9,29.64,NW,306,2.0,2.0,11,0.00,,,0.00,Wunderground v.1.15,2013-05-30 19:50:00,
2013-05-30 13:55:00,84.2,24.0,29.64,NW,306,1.0,2.0,11,0.00,,,0.00,Wunderground v.1.15,2013-05-30 19:55:00,
2013-05-30 14:00:00,84.5,24.2,29.64,NW,315,1.0,1.0,11,0.00,,,0.00,Wunderground v.1.15,2013-05-30 20:00:00,
2013-05-30 14:05:00,85.1,24.7,29.64,NW,314,1.0,3.0,11,0.00,,,0.00,Wunderground v.1.15,2013-05-30 20:05:00,
2013-05-30 14:10:00,85.5,27.1,29.64,NW,309,1.0,1.0,12,0.00,,,0.00,Wunderground v.1.15,2013-05-30 20:10:00,
2013-05-30 14:14:00,85.9,25.3,29.64,NW,307,2.0,2.0,11,0.00,,,0.00,Wunderground v.1.15,2013-05-30 20:14:00,
2013-05-30 14:19:00,85.7,25.1,29.63,NW,307,1.0,1.0,11,0.00,,,0.00,Wunderground v.1.15,2013-05-30 20:19:00,
2013-05-30 14:24:00,85.5,22.7,29.63,WNW,297,1.0,2.0,10,0.00,,,0.00,Wunderground v.1.15,2013-05-30 20:24:00,
2013-05-30 14:29:00,85.6,22.8,29.63,WNW,297,2.0,4.0,10,0.00,,,0.00,Wunderground v.1.15,2013-05-30 20:29:00,
2013-05-30 14:34:00,85.7,25.1,29.62,WNW,298,1.0,4.0,11,0.00,,,0.00,Wunderground v.1.15,2013-05-30 20:34:00,
2013-05-30 14:40:00,85.9,23.0,29.62,WNW,294,2.0,2.0,10,0.00,,,0.00,Wunderground v.1.15,2013-05-30 20:40:00,
2013-05-30 14:45:00,86.2,23.2,29.62,WNW,294,2.0,2.0,10,0.00,,,0.00,Wunderground v.1.15,2013-05-30 20:45:00,
2013-05-30 14:50:00,86.9,23.8,29.62,WNW,290,1.0,3.0,10,0.00,,,0.00,Wunderground v.1.15,2013-05-30 20:50:00,
2013-05-30 14:54:00,87.1,23.9,29.61,WNW,301,2.0,4.0,10,0.00,,,0.00,Wunderground v.1.15,2013-05-30 20:54:00,
2013-05-30 14:59:00,87.1,23.9,29.62,WNW,293,2.0,2.0,10,0.00,,,0.00,Wunderground v.1.15,2013-05-30 20:59:00,
2013-05-30 15:04:00,87.3,24.1,29.62,WNW,292,2.0,3.0,10,0.00,,,0.00,Wunderground v.1.15,2013-05-30 21:04:00,
2013-05-30 15:09:00,87.2,24.0,29.61,WNW,292,1.0,1.0,10,0.00,,,0.00,Wunderground v.1.15,2013-05-30 21:09:00,
2013-05-30 15:14:00,87.7,24.4,29.61,WNW,292,1.0,1.0,10,0.00,,,0.00,Wunderground v.1.15,2013-05-30 21:14:00,
2013-05-30 15:20:00,88.3,24.8,29.61,WNW,292,1.0,3.0,10,0.00,,,0.00,Wunderground v.1.15,2013-05-30 21:20:00,
2013-05-30 15:25:00,88.3,24.8,29.61,NW,311,2.0,3.0,10,0.00,,,0.00,Wunderground v.1.15,2013-05-30 21:25:00,
2013-05-30 15:30:00,88.4,24.9,29.60,NW,307,2.0,2.0,10,0.00,,,0.00,Wunderground v.1.15,2013-05-30 21:30:00,
2013-05-30 15:35:00,88.3,24.8,29.61,WNW,300,2.0,2.0,10,0.00,,,0.00,Wunderground v.1.15,2013-05-30 21:35:00,
2013-05-30 15:40:00,87.8,24.4,29.60,NW,316,2.0,2.0,10,0.00,,,0.00,Wunderground v.1.15,2013-05-30 21:40:00,
2013-05-30 15:44:00,87.7,26.7,29.60,NW,317,2.0,2.0,11,0.00,,,0.00,Wunderground v.1.15,2013-05-30 21:44:00,
2013-05-30 15:49:00,87.9,24.5,29.60,West,281,2.0,2.0,10,0.00,,,0.00,Wunderground v.1.15,2013-05-30 21:49:00,
2013-05-30 15:54:00,87.4,24.1,29.60,NNW,345,2.0,2.0,10,0.00,,,0.00,Wunderground v.1.15,2013-05-30 21:54:00,
2013-05-30 15:59:00,87.2,24.0,29.60,North,350,2.0,2.0,10,0.00,,,0.00,Wunderground v.1.15,2013-05-30 21:59:00,
2013-05-30 16:04:00,87.6,24.3,29.60,NNW,346,1.0,3.0,10,0.00,,,0.00,Wunderground v.1.15,2013-05-30 22:04:00,
2013-05-30 16:10:00,88.0,24.6,29.60,WNW,288,2.0,2.0,10,0.00,,,0.00,Wunderground v.1.15,2013-05-30 22:10:00,
2013-05-30 16:15:00,87.9,24.5,29.60,WNW,291,2.0,2.0,10,0.00,,,0.00,Wunderground v.1.15,2013-05-30 22:15:00,
2013-05-30 16:20:00,87.8,24.4,29.60,WNW,298,1.0,1.0,10,0.00,,,0.00,Wunderground v.1.15,2013-05-30 22:20:00,
2013-05-30 16:25:00,87.5,24.2,29.59,WNW,298,1.0,1.0,10,0.00,,,0.00,Wunderground v.1.15,2013-05-30 22:25:00,
2013-05-30 16:29:00,87.8,24.4,29.59,NW,317,1.0,1.0,10,0.00,,,0.00,Wunderground v.1.15,2013-05-30 22:29:00,
2013-05-30 16:34:00,88.7,25.1,29.58,NW,321,1.0,1.0,10,0.00,,,0.00,Wunderground v.1.15,2013-05-30 22:34:00,
2013-05-30 16:39:00,89.3,23.0,29.59,NW,321,1.0,1.0,9,0.00,,,0.00,Wunderground v.1.15,2013-05-30 22:39:00,
2013-05-30 16:44:00,89.6,23.3,29.59,NNW,327,1.0,5.0,9,0.00,,,0.00,Wunderground v.1.15,2013-05-30 22:44:00,
2013-05-30 16:49:00,89.6,23.3,29.58,NNW,347,2.0,2.0,9,0.00,,,0.00,Wunderground v.1.15,2013-05-30 22:49:00,
2013-05-30 16:55:00,88.7,22.6,29.59,WSW,243,3.0,3.0,9,0.00,,,0.00,Wunderground v.1.15,2013-05-30 22:55:00,
2013-05-30 17:00:00,88.0,24.6,29.58,WSW,246,2.0,2.0,10,0.00,,,0.00,Wunderground v.1.15,2013-05-30 23:00:00,
2013-05-30 17:05:00,87.9,22.0,29.58,WSW,245,1.0,2.0,9,0.00,,,0.00,Wunderground v.1.15,2013-05-30 23:05:00,
2013-05-30 17:10:00,88.2,24.7,29.58,NW,311,1.0,1.0,10,0.00,,,0.00,Wunderground v.1.15,2013-05-30 23:10:00,
2013-05-30 17:19:00,88.5,22.4,29.58,North,349,1.0,3.0,9,0.00,,,0.00,Wunderground v.1.15,2013-05-30 23:19:00,
2013-05-30 17:24:00,87.5,21.7,29.58,NNW,348,2.0,3.0,9,0.00,,,0.00,Wunderground v.1.15,2013-05-30 23:24:00,
2013-05-30 17:29:00,87.5,21.7,29.58,NNW,348,1.0,1.0,9,0.00,,,0.00,Wunderground v.1.15,2013-05-30 23:29:00,
2013-05-30 17:34:00,87.6,24.3,29.58,NNW,348,1.0,2.0,10,0.00,,,0.00,Wunderground v.1.15,2013-05-30 23:34:00,
2013-05-30 17:39:00,88.1,22.1,29.57,NNW,347,1.0,1.0,9,0.00,,,0.00,Wunderground v.1.15,2013-05-30 23:39:00,
2013-05-30 17:44:00,88.5,22.4,29.58,North,355,2.0,2.0,9,0.00,,,0.00,Wunderground v.1.15,2013-05-30 23:44:00,
2013-05-30 17:49:00,88.9,22.7,29.58,NW,325,2.0,2.0,9,0.00,,,0.00,Wunderground v.1.15,2013-05-30 23:49:00,
2013-05-30 17:55:00,89.1,22.9,29.58,NW,325,1.0,2.0,9,0.00,,,0.00,Wunderground v.1.15,2013-05-30 23:55:00,
2013-05-30 18:00:00,88.8,19.9,29.58,NW,323,1.0,1.0,8,0.00,,,0.00,Wunderground v.1.15,2013-05-31 00:00:00,
2013-05-30 18:05:00,88.4,22.4,29.58,NW,321,1.0,4.0,9,0.00,,,0.00,Wunderground v.1.15,2013-05-31 00:05:00,
2013-05-30 18:09:00,87.9,22.0,29.58,NW,319,2.0,2.0,9,0.00,,,0.00,Wunderground v.1.15,2013-05-31 00:09:00,
2013-05-30 18:14:00,87.7,21.8,29.58,NW,319,1.0,2.0,9,0.00,,,0.00,Wunderground v.1.15,2013-05-31 00:14:00,
2013-05-30 18:19:00,87.6,21.8,29.56,NW,319,1.0,1.0,9,0.00,,,0.00,Wunderground v.1.15,2013-05-31 00:19:00,
2013-05-30 18:24:00,87.4,21.6,29.58,NNW,338,2.0,2.0,9,0.00,,,0.00,Wunderground v.1.15,2013-05-31 00:24:00,
2013-05-30 18:30:00,87.0,18.6,29.58,WNW,284,3.0,3.0,8,0.00,,,0.00,Wunderground v.1.15,2013-05-31 00:30:00,
2013-05-30 18:35:00,86.5,18.2,29.58,West,277,2.0,3.0,8,0.00,,,0.00,Wunderground v.1.15,2013-05-31 00:35:00,
2013-05-30 18:40:00,86.4,20.9,29.58,West,279,1.0,5.0,9,0.00,,,0.00,Wunderground v.1.15,2013-05-31 00:40:00,
2013-05-30 18:45:00,86.1,20.6,29.58,WNW,296,1.0,5.0,9,0.00,,,0.00,Wunderground v.1.15,2013-05-31 00:45:00,
2013-05-30 18:54:00,85.8,17.7,29.58,WNW,290,1.0,2.0,8,0.00,,,0.00,Wunderground v.1.15,2013-05-31 00:54:00,
2013-05-30 18:59:00,85.6,20.3,29.58,WNW,286,1.0,2.0,9,0.00,,,0.00,Wunderground v.1.15,2013-05-31 00:59:00,
2013-05-30 19:04:00,85.6,20.3,29.58,WNW,286,1.0,2.0,9,0.00,,,0.00,Wunderground v.1.15,2013-05-31 01:04:00,
2013-05-30 19:09:00,85.4,20.1,29.59,WNW,285,1.0,2.0,9,0.00,,,0.00,Wunderground v.1.15,2013-05-31 01:09:00,
2013-05-30 19:14:00,85.2,17.2,29.59,WNW,282,1.0,2.0,8,0.00,,,0.00,Wunderground v.1.15,2013-05-31 01:14:00,
2013-05-30 19:19:00,84.9,19.7,29.59,WNW,282,1.0,1.0,9,0.00,,,0.00,Wunderground v.1.15,2013-05-31 01:19:00,
2013-05-30 19:25:00,84.7,19.6,29.59,WNW,282,1.0,1.0,9,0.00,,,0.00,Wunderground v.1.15,2013-05-31 01:25:00,
2013-05-30 19:30:00,84.4,19.4,29.59,WNW,282,1.0,1.0,9,0.00,,,0.00,Wunderground v.1.15,2013-05-31 01:30:00,
2013-05-30 19:35:00,84.2,19.2,29.59,WNW,282,1.0,1.0,9,0.00,,,0.00,Wunderground v.1.15,2013-05-31 01:35:00,
2013-05-30 19:40:00,83.9,19.0,29.59,WNW,282,1.0,2.0,9,0.00,,,0.00,Wunderground v.1.15,2013-05-31 01:40:00,
2013-05-30 19:45:00,83.7,18.8,29.60,WNW,282,1.0,2.0,9,0.00,,,0.00,Wunderground v.1.15,2013-05-31 01:45:00,
2013-05-30 19:49:00,83.5,18.7,29.60,WNW,282,1.0,1.0,9,0.00,,,0.00,Wunderground v.1.15,2013-05-31 01:49:00,
2013-05-30 19:59:00,83.1,20.9,29.60,WNW,282,0.0,0.0,10,0.00,,,0.00,Wunderground v.1.15,2013-05-31 01:59:00,
2013-05-30 20:04:00,82.8,20.6,29.60,WNW,282,0.0,0.0,10,0.00,,,0.00,Wunderground v.1.15,2013-05-31 02:04:00,
2013-05-30 20:10:00,82.6,20.5,29.60,WNW,282,0.0,0.0,10,0.00,,,0.00,Wunderground v.1.15,2013-05-31 02:10:00,
2013-05-30 20:15:00,82.4,20.3,29.60,WNW,282,0.0,0.0,10,0.00,,,0.00,Wunderground v.1.15,2013-05-31 02:15:00,
2013-05-30 20:20:00,82.1,20.1,29.61,WNW,282,0.0,0.0,10,0.00,,,0.00,Wunderground v.1.15,2013-05-31 02:20:00,
2013-05-30 20:24:00,81.9,19.9,29.61,WNW,282,0.0,0.0,10,0.00,,,0.00,Wunderground v.1.15,2013-05-31 02:24:00,
2013-05-30 20:29:00,81.8,19.9,29.60,WNW,282,0.0,3.0,10,0.00,,,0.00,Wunderground v.1.15,2013-05-31 02:29:00,
2013-05-30 20:34:00,81.7,22.0,29.61,WNW,282,0.0,3.0,11,0.00,,,0.00,Wunderground v.1.15,2013-05-31 02:34:00,
2013-05-30 20:39:00,81.4,21.8,29.61,WNW,282,0.0,0.0,11,0.00,,,0.00,Wunderground v.1.15,2013-05-31 02:39:00,
2013-05-30 20:44:00,81.2,21.7,29.61,WNW,282,0.0,0.0,11,0.00,,,0.00,Wunderground v.1.15,2013-05-31 02:44:00,
2013-05-30 20:49:00,81.0,21.5,29.61,WNW,282,0.0,0.0,11,0.00,,,0.00,Wunderground v.1.15,2013-05-31 02:49:00,
2013-05-30 20:54:00,80.8,21.3,29.61,WNW,282,0.0,0.0,11,0.00,,,0.00,Wunderground v.1.15,2013-05-31 02:54:00,
2013-05-30 21:00:00,80.5,21.1,29.61,WNW,282,0.0,0.0,11,0.00,,,0.00,Wunderground v.1.15,2013-05-31 03:00:00,
2013-05-30 21:10:00,80.1,22.9,29.61,WNW,282,0.0,0.0,12,0.00,,,0.00,Wunderground v.1.15,2013-05-31 03:10:00,
2013-05-30 21:14:00,79.8,22.6,29.61,WNW,282,0.0,0.0,12,0.00,,,0.00,Wunderground v.1.15,2013-05-31 03:14:00,
2013-05-30 21:19:00,79.6,22.5,29.62,WNW,282,0.0,0.0,12,0.00,,,0.00,Wunderground v.1.15,2013-05-31 03:19:00,
2013-05-30 21:24:00,79.3,22.2,29.62,WNW,282,0.0,0.0,12,0.00,,,0.00,Wunderground v.1.15,2013-05-31 03:24:00,
2013-05-30 21:29:00,79.0,22.0,29.62,WNW,282,0.0,3.0,12,0.00,,,0.00,Wunderground v.1.15,2013-05-31 03:29:00,
2013-05-30 21:34:00,78.7,23.7,29.62,WNW,282,0.0,3.0,13,0.00,,,0.00,Wunderground v.1.15,2013-05-31 03:34:00,
2013-05-30 21:40:00,78.5,23.5,29.62,WNW,282,0.0,0.0,13,0.00,,,0.00,Wunderground v.1.15,2013-05-31 03:40:00,
2013-05-30 21:45:00,78.2,23.3,29.62,WNW,282,0.0,0.0,13,0.00,,,0.00,Wunderground v.1.15,2013-05-31 03:45:00,
2013-05-30 21:50:00,77.9,23.1,29.62,WNW,282,0.0,0.0,13,0.00,,,0.00,Wunderground v.1.15,2013-05-31 03:50:00,
2013-05-30 21:55:00,77.6,22.8,29.63,WNW,282,0.0,0.0,13,0.00,,,0.00,Wunderground v.1.15,2013-05-31 03:55:00,
2013-05-30 21:59:00,77.4,22.7,29.62,WNW,282,0.0,0.0,13,0.00,,,0.00,Wunderground v.1.15,2013-05-31 03:59:00,
2013-05-30 22:04:00,77.2,22.5,29.63,WNW,282,0.0,0.0,13,0.00,,,0.00,Wunderground v.1.15,2013-05-31 04:04:00,
2013-05-30 22:09:00,76.9,24.0,29.63,WNW,282,0.0,0.0,14,0.00,,,0.00,Wunderground v.1.15,2013-05-31 04:09:00,
2013-05-30 22:14:00,76.6,23.8,29.63,WNW,282,0.0,0.0,14,0.00,,,0.00,Wunderground v.1.15,2013-05-31 04:14:00,
2013-05-30 22:19:00,76.2,23.5,29.63,WNW,282,0.0,0.0,14,0.00,,,0.00,Wunderground v.1.15,2013-05-31 04:19:00,
2013-05-30 22:24:00,75.9,24.9,29.63,WNW,282,0.0,0.0,15,0.00,,,0.00,Wunderground v.1.15,2013-05-31 04:24:00,
2013-05-30 22:30:00,75.5,22.9,29.63,WNW,282,0.0,0.0,14,0.00,,,0.00,Wunderground v.1.15,2013-05-31 04:30:00,
2013-05-30 22:35:00,75.2,22.7,29.63,WNW,282,0.0,0.0,14,0.00,,,0.00,Wunderground v.1.15,2013-05-31 04:35:00,
2013-05-30 22:40:00,75.0,22.5,29.63,WNW,282,0.0,0.0,14,0.00,,,0.00,Wunderground v.1.15,2013-05-31 04:40:00,
2013-05-30 22:45:00,74.8,24.0,29.63,WNW,282,0.0,0.0,15,0.00,,,0.00,Wunderground v.1.15,2013-05-31 04:45:00,
2013-05-30 22:50:00,74.7,25.5,29.64,WNW,282,0.0,0.0,16,0.00,,,0.00,Wunderground v.1.15,2013-05-31 04:50:00,
2013-05-30 22:54:00,74.4,25.2,29.64,WNW,282,0.0,0.0,16,0.00,,,0.00,Wunderground v.1.15,2013-05-31 04:54:00,
2013-05-30 22:59:00,74.1,25.0,29.64,WNW,282,0.0,0.0,16,0.00,,,0.00,Wunderground v.1.15,2013-05-31 04:59:00,
2013-05-30 23:04:00,73.6,23.1,29.64,WNW,282,0.0,0.0,15,0.00,,,0.00,Wunderground v.1.15,2013-05-31 05:04:00,
2013-05-30 23:10:00,73.2,22.7,29.64,WNW,282,0.0,0.0,15,0.00,,,0.00,Wunderground v.1.15,2013-05-31 05:10:00,
2013-05-30 23:15:00,72.9,22.5,29.64,WNW,282,0.0,0.0,15,0.00,,,0.00,Wunderground v.1.15,2013-05-31 05:15:00,
2013-05-30 23:25:00,72.4,23.6,29.65,WNW,282,0.0,0.0,16,0.00,,,0.00,Wunderground v.1.15,2013-05-31 05:25:00,
2013-05-30 23:29:00,72.3,23.6,29.66,WNW,282,0.0,0.0,16,0.00,,,0.00,Wunderground v.1.15,2013-05-31 05:29:00,
2013-05-30 23:34:00,72.2,23.5,29.66,WNW,282,0.0,0.0,16,0.00,,,0.00,Wunderground v.1.15,2013-05-31 05:34:00,
2013-05-30 23:39:00,72.0,24.8,29.66,WNW,283,0.0,3.0,17,0.00,,,0.00,Wunderground v.1.15,2013-05-31 05:39:00,
2013-05-30 23:44:00,72.1,23.4,29.66,WNW,283,0.0,3.0,16,0.00,,,0.00,Wunderground v.1.15,2013-05-31 05:44:00,
2013-05-30 23:49:00,72.1,24.8,29.66,WNW,283,0.0,0.0,17,0.00,,,0.00,Wunderground v.1.15,2013-05-31 05:49:00,
2013-05-30 23:55:00,71.9,24.7,29.66,WNW,283,0.0,0.0,17,0.00,,,0.00,Wunderground v.1.15,2013-05-31 05:55:00,